Preview of NWS' New Version of Forecast
This preview is not operational and should not be used for support decisions.

Regional Weather Roundup (RWR)

Issued by National Weather Service (NWS)

                            
000
ASUS42 KTBW 210116
RWRFL 
FLORIDA REGIONAL WEATHER ROUNDUP
NATIONAL WEATHER SERVICE TAMPA BAY RUSKIN FL
800 PM EST WED FEB 20 2019

NOTE: "FAIR" INDICATES FEW OR NO CLOUDS BELOW 12,000 FEET WITH NO
SIGNIFICANT WEATHER AND/OR OBSTRUCTIONS TO VISIBILITY.

FLZ001>010-012>015-112-114-115-210200-
PANHANDLE FLORIDA
  
CITY           SKY/WX    TMP DP  RH WIND       PRES   REMARKS
PENSACOLA      FOG       70  69  97 S10       29.98R VSB 1/2          
PENSACOLA NAS  FOG       68  68 100 S7        29.97R VSB 1/4          
MILTON NAS     FOG       71  71 100 S13       29.99  VSB 1            
CRESTVIEW      CLOUDY    71  69  93 S7        30.01R                  
DUKE FIELD     FOG       69  69 100 S10       29.99R VSB 1/4          
VALPARAISO     FOG       68  68 100 SE6       29.99R VSB 1            
MARY ESTHER    FOG       67  66  97 SE12      29.98R VSB 1/4          
PANAMA CITY    FOG       69  68  96 SE12      30.01S VSB 1/2          
TYNDALL AFB    CLOUDY    70  68  94 SE15      30.02R FOG              
APALACHICOLA   FOG       67  66  97 S8        30.04S VSB 1/4          

STATION/POSITION SKY/WX   TEMP    WIND        PRES    WAVE   SWELL
                          AIR SEA DIR/SP/G            HT/PER HT/PER
                          (F)     (DEG/KT/KT) (MB)    (FT/S) (FT/S)
30.1N   87.6W              68     150/ 10/ 12 1014.9R   4/ 6   3/ 6
29.2N   88.2W                     160/  6/  8 1015.2R   5/ 7   5/ 7
PANAMA CITY BEAC           65 63  130/ 14/ 16 1016.4R
TOWER C                    68     160/ 16/ 16 1017.4R

$$
FLZ011-016>038-118-127-128-134-139-239-210200-
NORTH FLORIDA
  
CITY           SKY/WX    TMP DP  RH WIND       PRES   REMARKS
MARIANNA       MOCLDY    72  70  93 S10       30.02R                  
TALLAHASSEE    CLOUDY    71  70  96 SE3       30.06R                  
PERRY          FAIR      73  70  91 CALM      30.09R                  
LIVE OAK       MOCLDY    70  68  94 CALM      30.08R                  
CROSS CITY     FAIR      71  69  93 SW5       30.08S                  
LAKE CITY      FAIR      72  64  78 W5        30.09R                  
GAINESVILLE    FAIR      77  66  68 SW6       30.11R                  
WILLISTON        N/A    N/A N/A N/A MISG        N/A                   
PALATKA        CLOUDY   N/A N/A N/A W10       30.09R                  
MAYPORT NAS    LGT RAIN  70  68  93 SE12      30.09S FOG              
JACKSONVILLE   CLOUDY    69  67  93 NE3       30.08R                  
JAX NAS        MOCLDY    72  72 100 CALM      30.10R                  
JAX CECIL      CLOUDY    73  70  88 VRB5      30.09R                  
FERNANDINA BEA CLOUDY    67  66  96 SE10      30.09S FOG              
ST AUGUSTINE   CLOUDY    71  67  87 MISG      30.11R                  
PALM COAST     MOCLDY    70  67  90 SE5       30.10R                  

STATION/POSITION SKY/WX   TEMP    WIND        PRES    WAVE   SWELL
                          AIR SEA DIR/SP/G            HT/PER HT/PER
                          (F)     (DEG/KT/KT) (MB)    (FT/S) (FT/S)
SHELL POINT      NOT AVBL
KEATON BEACH               71     170/  9/ 10 1018.6R
CEDAR KEY        NOT AVBL
FERNANDINA                 68 61  120/  5/  7 1019.6S
30.7N   81.3W                 60                N/A     5/ 9   2/11
MAYPORT                    69 61  130/  8/ 12 1018.9F
31.4N   80.9W              62 59  360/  4/  8 1019.6R   6/ 8   5/ 8
ST AUGUSTINE               64 62  170/ 11/ 12 1019.1R

$$
FLZ040-043>046-052-053-057-058-063-144-210200-
INTERIOR CENTRAL FLORIDA
  
CITY           SKY/WX    TMP DP  RH WIND       PRES   REMARKS
OCALA          CLOUDY    77  67  71 VRB5      30.09                   
LEESBURG       LGT RAIN  77  68  73 CALM      30.09R                  
SANFORD        MOCLDY    75  70  84 SE9       30.09R                  
ORLANDO EXEC   MOCLDY    78  70  76 SE10      30.09R                  
ORLANDO INTL   MOCLDY    78  65  63 E8G20     30.09R                  
KISSIMMEE      MOCLDY    78  66  66 S8        30.10R                  
WINTER HAVEN   MOCLDY    82  64  54 SE6       30.09R                  
LAKELAND       CLOUDY    79  66  65 CALM      30.09R                  
BARTOW         CLOUDY    77  70  78 SE5       30.08R                  
SEBRING        FAIR      76  67  73 SE8       30.09R                  
OKEECHOBEE     FAIR      73  66  78 E5        30.09R                  

$$
FLZ041-047-054-059-064-141-147-210200-
EAST CENTRAL FLORIDA
  
CITY           SKY/WX    TMP DP  RH WIND       PRES   REMARKS
DAYTONA BEACH  FAIR      75  71  87 S10G20    30.09R                  
DELAND         FAIR      75  70  83 SE8       30.09R                  
NEW SMYRNA BEA PTCLDY    73  70  88 SE8       30.11R                  
JFK SPACE CTR  FAIR     N/A N/A N/A S9        30.11R                  
TITUSVILLE     CLEAR     75  72  88 SE12      30.11R                  
CAPE CANAVERAL FAIR      70  69  94 SE12      30.09R                  
PATRICK AFB    FAIR      70  70 100 S12       30.10R                  
MELBOURNE      FAIR      75  69  81 SE13      30.10R                  
VERO BEACH     FAIR      73  69  87 SE8       30.11R                  
FT PIERCE      FAIR      74  68  81 SE6       30.10R                  
STUART         PTCLDY    75  68  78 SE9       30.12R                  

STATION/POSITION SKY/WX   TEMP    WIND        PRES    WAVE   SWELL
                          AIR SEA DIR/SP/G            HT/PER HT/PER
                          (F)     (DEG/KT/KT) (MB)    (FT/S) (FT/S)
28.5N   80.2W              71     150/ 12/ 14 1019.8R   6/ 9   5/ 9
28.9N   78.5W              75 78  150/ 16/ 21 1021.3R   9/ 8   5/ 8
TRIDENT PIER               68 70  140/  6/  9 1020.6R
28.4N   80.5W                 67                N/A     4/ 9   2/11

$$
FLZ050-056-061-142-242-148-248-149-249-151-251-155-255-
160-260-210200-
WEST CENTRAL FLORIDA
  
CITY           SKY/WX    TMP DP  RH WIND       PRES   REMARKS
CRYSTAL RIVER  CLOUDY    73  68  83 CALM      30.08R                  
INVERNESS      LGT RAIN  73  73 100 CALM      30.09R                  
BROOKSVILLE    MOCLDY    75  67  76 SW5       30.09R                  
CLEARWATER AIR FAIR      73  66  78 SW6       30.07S                  
ST PETE CLEARW FAIR      76  65  68 S12       30.07R                  
TAMPA INTL     MOCLDY    76  67  73 S7        30.08R                  
TAMPA EXEC     CLOUDY    73  68  83 CALM      30.09R                  
PLANT CITY     CLOUDY    81  66  61 CALM      30.10R                  
MACDILL AFB    CLOUDY    74  69  83 SW6       30.07R                  
PETER O KNIGHT CLOUDY    77  70  78 SW5       30.08R                  
ST PETERSBURG  FAIR      77  67  71 SW12      30.06R                  
SARASOTA       MOCLDY    76  68  76 S10       30.06R                  
VENICE         FAIR      75  70  83 S8        30.08R                  

STATION/POSITION SKY/WX   TEMP    WIND        PRES    WAVE   SWELL
                          AIR SEA DIR/SP/G            HT/PER HT/PER
                          (F)     (DEG/KT/KT) (MB)    (FT/S) (FT/S)
27.3N   84.2W                 72                N/A     4/ 5
CLEARWATER BEACH           75 72  160/  9/ 11 1018.5R
MIDDLE TAMPA BAY           74     220/  8/  9 1018.6R
VENICE                     74 70  170/  8/  9   N/A

$$
FLZ066-069-070-075>078-162-262-165-265-210200-
SOUTHWEST FLORIDA AND KEYS
  
CITY           SKY/WX    TMP DP  RH WIND       PRES   REMARKS
PUNTA GORDA    FAIR      74  67  78 SE3       30.09R                  
FT MYERS       FAIR      75  69  81 CALM      30.06R                  
SOUTHWEST INTL FAIR      74  69  85 CALM      30.07R                  
NAPLES         FAIR      76  69  79 S3        30.07R                  
MARCO ISLAND   FAIR     N/A N/A N/A SE3       30.08R                  
IMMOKALEE      FAIR      73  64  73 E5        30.06R                  
MARATHON       FAIR      80  69  69 E10G17    30.06R                  
KEY WEST NAS   FAIR      79  69  71 E18G24    30.04R                  
KEY WEST INTL  FAIR      79  70  74 E17       30.05R                  

STATION/POSITION SKY/WX   TEMP    WIND        PRES    WAVE   SWELL
                          AIR SEA DIR/SP/G            HT/PER HT/PER
                          (F)     (DEG/KT/KT) (MB)    (FT/S) (FT/S)
NAPLES                     77 74  160/  3/  3 1018.1R
26.0N   85.6W              78 80  140/ 12/ 14 1016.4R   4/ 7   3/ 7
DRY TORTUGAS               78     110/ 16/ 18 1017.0R
SAND KEY                   78                 1017.0R
SOMBRERO KEY               78                 1017.1R
LONG KEY                   78 79  100/ 16/ 17 1017.4R

$$
FLZ067-068-071>074-168-172>174-210200-
SOUTHEAST FLORIDA 
  
CITY           SKY/WX    TMP DP  RH WIND       PRES   REMARKS
W PALM BEACH   FAIR      76  69  79 SE10      30.10R                  
BOCA RATON     PTCLDY    77  70  78 SE5       30.10R                  
FT LAUDER-EXEC FAIR      77  71  82 SE8       30.09R                  
FT LAUDERDALE  FAIR      77  72  84 SE12      30.09R                  
POMPANO BEACH  FAIR      77  69  76 SE7       30.10R                  
PEMBROKE PINES FAIR      75  68  78 E6        30.10R                  
OPA LOCKA      FAIR      76  67  73 E7        30.10R                  
MIAMI          FAIR      77  70  79 SE10      30.09R                  
WEST KENDALL   FAIR      76  68  76 SE7       30.08R                  
HOMESTEAD      FAIR      75  69  79 E8        30.08R                  

STATION/POSITION SKY/WX   TEMP    WIND        PRES    WAVE   SWELL
                          AIR SEA DIR/SP/G            HT/PER HT/PER
                          (F)     (DEG/KT/KT) (MB)    (FT/S) (FT/S)
PORT EVERGLADES            78     120/  4/  8 1019.0R
VIRGINIA KEY               78 79  100/  7/  8 1018.2R
LAKE WORTH                 77 78  140/ 14/ 16 1020.3R
FOWEY ROCKS                78 78  110/ 12/ 13 1019.4R
SETTLEMENT POINT           76     130/  9/ 11 1020.2R

$$